TimeCDT,TemperatureF,Dew PointF,Humidity,Sea Level PressureIn,VisibilityMPH,Wind Direction,Wind SpeedMPH,Gust SpeedMPH,PrecipitationIn,Events,Conditions,WindDirDegrees,DateUTC
12:52 AM,62.1,50.0,65,30.13,10.0,ENE,5.8,-,N/A,,Clear,70,2013-08-22 05:52:00
1:52 AM,59.0,48.9,69,30.15,10.0,Calm,Calm,-,N/A,,Clear,0,2013-08-22 06:52:00
2:52 AM,55.9,48.9,77,30.17,10.0,ENE,4.6,-,N/A,,Partly Cloudy,70,2013-08-22 07:52:00
3:52 AM,57.9,48.9,72,30.18,10.0,NE,6.9,-,N/A,,Clear,40,2013-08-22 08:52:00
4:52 AM,55.9,50.0,80,30.19,10.0,SSE,4.6,-,N/A,,Overcast,150,2013-08-22 09:52:00
5:52 AM,57.0,50.0,77,30.19,10.0,Calm,Calm,-,N/A,,Overcast,0,2013-08-22 10:52:00
6:52 AM,57.9,51.1,78,30.20,10.0,Calm,Calm,-,N/A,,Overcast,0,2013-08-22 11:52:00
7:52 AM,63.0,51.1,65,30.20,10.0,NE,5.8,-,N/A,,Overcast,50,2013-08-22 12:52:00
8:52 AM,66.0,48.9,54,30.21,10.0,East,8.1,-,N/A,,Mostly Cloudy,80,2013-08-22 13:52:00
9:52 AM,71.1,46.0,41,30.21,10.0,ESE,10.4,-,N/A,,Clear,110,2013-08-22 14:52:00
10:52 AM,75.0,39.9,28,30.21,10.0,ESE,12.7,-,N/A,,Clear,120,2013-08-22 15:52:00
11:52 AM,75.9,39.9,27,30.20,10.0,East,12.7,19.6,N/A,,Clear,90,2013-08-22 16:52:00
12:52 PM,79.0,39.0,24,30.19,10.0,ESE,10.4,-,N/A,,Clear,110,2013-08-22 17:52:00
1:52 PM,81.0,42.1,25,30.16,10.0,SE,9.2,19.6,N/A,,Clear,140,2013-08-22 18:52:00
2:52 PM,82.0,44.1,26,30.15,10.0,South,8.1,-,N/A,,Clear,180,2013-08-22 19:52:00
3:52 PM,84.0,46.0,26,30.12,10.0,SSE,9.2,17.3,N/A,,Clear,150,2013-08-22 20:52:00
4:52 PM,84.0,46.0,26,30.10,10.0,South,11.5,-,N/A,,Clear,190,2013-08-22 21:52:00
5:52 PM,84.0,48.0,28,30.08,10.0,SSE,12.7,-,N/A,,Clear,160,2013-08-22 22:52:00
6:52 PM,82.9,48.0,29,30.06,10.0,SSE,11.5,-,N/A,,Clear,160,2013-08-22 23:52:00
7:52 PM,79.0,51.1,38,30.05,10.0,SSE,8.1,-,N/A,,Clear,150,2013-08-23 00:52:00
8:52 PM,69.1,54.0,58,30.06,10.0,SE,6.9,-,N/A,,Clear,140,2013-08-23 01:52:00
9:52 PM,66.0,52.0,60,30.08,10.0,SE,8.1,-,N/A,,Clear,130,2013-08-23 02:52:00
10:52 PM,64.0,51.1,63,30.08,10.0,SE,8.1,-,N/A,,Clear,140,2013-08-23 03:52:00
11:52 PM,62.1,51.1,67,30.08,10.0,SE,5.8,-,N/A,,Clear,140,2013-08-23 04:52:00